KB7YYZ Weather Reports


Display with metric or nautical units.
time (UTC)temp
F
wind
direction
speed
MPH
gust
MPH
rain 1hr
in
rain 24hr
in
rain mn
in
humidity
%
barometer
mb
20260505024049 69 142 1.0 2.0 0.03 0.03 0.03 48 1007.8
20260505023040 70 45 0.0 1.0 0.03 0.03 0.03 49 1008.2
20260505022026 70 15 0.0 0.0 0.03 0.03 0.03 48 1008.3
20260505021023 72 45 0.0 0.0 0.03 0.03 0.03 49 1008.4
20260505020024 72 23 0.0 0.0 0.00 0.00 0.00 48 1008.5
20260505015021 72 47 0.0 0.0 0.00 0.00 0.00 46 1008.3
20260505014132 73 47 1.0 1.0 0.00 0.00 0.00 42 1008.5
20260505013042 73 242 1.0 1.0 0.00 0.00 0.00 37 1008.3
20260505012020 73 181 1.0 1.0 0.00 0.00 0.00 37 1008.0
20260505011036 74 228 1.0 1.0 0.00 0.00 0.00 35 1007.7
20260505010040 74 233 2.0 3.0 0.00 0.00 0.00 33 1007.6
20260505005026 75 229 3.0 3.0 0.00 0.00 0.00 33 1007.9
20260505004019 76 246 2.0 3.0 0.00 0.00 0.00 32 1007.8
20260505003025 76 246 4.0 4.0 0.00 0.00 0.00 31 1007.9
20260505002032 77 231 4.0 4.0 0.00 0.00 0.00 31 1007.6
20260505001038 78 224 2.0 3.0 0.00 0.00 0.00 30 1007.4
20260505000023 78 220 1.0 2.0 0.00 0.00 0.00 30 1007.3
20260504235039 78 183 0.0 1.0 0.00 0.00 0.00 30 1006.9
20260504234022 79 202 0.0 1.0 0.00 0.00 0.00 31 1006.9
20260504233024 79 34 1.0 1.0 0.00 0.00 0.00 32 1007.4
20260504232054 80 268 1.0 2.0 0.00 0.00 0.00 29 1007.7
20260504231020 82 258 4.0 4.0 0.00 0.00 0.00 25 1007.7
20260504230029 82 241 3.0 3.0 0.00 0.00 0.00 20 1007.3
20260504225039 83 291 3.0 3.0 0.00 0.00 0.00 19 1006.9
20260504224026 83 276 3.0 3.0 0.00 0.00 0.00 19 1006.9
20260504223022 83 233 4.0 4.0 0.00 0.00 0.00 19 1006.9
20260504222021 83 236 4.0 161.0 0.00 0.00 0.00 18 1007.0
20260504221032 84 270 3.0 162.0 0.00 0.00 0.00 19 1007.0
20260504220053 85 282 3.0 4.0 0.00 0.00 0.00 17 1007.3
20260504215022 85 290 3.0 3.0 0.00 0.00 0.00 17 1007.0
20260504214029 85 290 3.0 3.0 0.00 0.00 0.00 17 1006.9
20260504213034 85 322 3.0 3.0 0.00 0.00 0.00 18 1006.8
20260504212040 85 339 2.0 2.0 0.00 0.00 0.00 19 1006.8
20260504211109 85 284 2.0 2.0 0.00 0.00 0.00 19 1006.8
20260504210027 85 300 2.0 2.0 0.00 0.00 0.00 20 1007.0
20260504205026 85 271 2.0 2.0 0.00 0.00 0.00 19 1006.9
20260504204031 85 255 1.0 1.0 0.00 0.00 0.00 17 1006.7
20260504203046 85 277 2.0 3.0 0.00 0.00 0.00 17 1006.8
20260504202041 84 229 3.0 3.0 0.00 0.00 0.00 17 1006.9
20260504201037 84 222 3.0 3.0 0.00 0.00 0.00 17 1006.8
20260504200053 84 238 3.0 3.0 0.00 0.00 0.00 17 1007.0
20260504195033 84 237 5.0 5.0 0.00 0.00 0.00 17 1006.8
20260504194022 84 232 4.0 162.0 0.00 0.00 0.00 19 1006.8
20260504193029 83 234 2.0 3.0 0.00 0.00 0.00 19 1006.6
20260504192028 83 244 3.0 3.0 0.00 0.00 0.00 19 1006.7
20260504191019 83 232 2.0 3.0 0.00 0.00 0.00 19 1006.7
20260504190026 83 211 3.0 3.0 0.00 0.00 0.00 20 1006.6
20260504185042 83 228 4.0 4.0 0.00 0.00 0.00 20 1007.0
20260504184019 82 217 3.0 3.0 0.00 0.00 0.00 21 1007.1
20260504183044 82 231 2.0 2.0 0.00 0.00 0.00 23 1007.4
20260504182024 81 176 2.0 2.0 0.00 0.00 0.00 23 1007.4
20260504181023 81 117 2.0 2.0 0.00 0.00 0.00 23 1007.4
20260504180031 81 177 2.0 2.0 0.00 0.00 0.00 23 1007.4
20260504175030 81 45 1.0 2.0 0.00 0.00 0.00 24 1007.4
20260504174042 80 205 2.0 2.0 0.00 0.00 0.00 24 1007.6
20260504173042 80 17 1.0 2.0 0.00 0.00 0.00 24 1007.5
20260504172020 80 222 2.0 2.0 0.00 0.00 0.00 26
20260504171026 80 183 2.0 2.0 0.00 0.00 0.00 26 1007.7
20260504151021 76 223 2.0 2.0 0.00 0.00 0.00 31 1007.6
20260504141055 74 163 2.0 2.0 0.00 0.00 0.00 31 1007.4
20260504081023 75 194 0.0 0.0 0.00 0.00 0.00 29 1006.0
20260504045028 79 263 0.0 1.0 0.00 0.00 0.00 24 1006.8
20260504044025 79 201 1.0 1.0 0.00 0.00 0.00 24 1006.8
20260504043023 79 198 2.0 2.0 0.00 0.00 0.00 24 1006.7
20260504042020 80 206 2.0 3.0 0.00 0.00 0.00 23 1006.6
20260504041033 80 244 2.0 2.0 0.00 0.00 0.00 22 1006.6
20260504040024 80 193 2.0 3.0 0.00 0.00 0.00 21 1006.3
20260504035039 81 243 3.0 3.0 0.00 0.00 0.00 20 1006.0
20260504034058 81 220 3.0 3.0 0.00 0.00 0.00 19 1005.7
20260504033025 82 209 3.0 4.0 0.00 0.00 0.00 18 1005.5
20260504032031 82 229 5.0 5.0 0.00 0.00 0.00 17 1005.3
20260504031021 83 237 4.0 162.0 0.00 0.00 0.00 16 1005.0
20260504030036 83 235 3.0 4.0 0.00 0.00 0.00 15 1004.8
20260504025045 84 233 4.0 4.0 0.00 0.00 0.00 15 1004.4